Погода Никольское

Погода Никольское : погода сейчас, прогноз погоды и архив. Всё, что Вы хотите узнать о погоде Никольское!

Хотите узнать прогноз погоды Никольское? Тогда Вам сюда: Погода Никольское

Поиск расширенной информации на нашем сайте:

Другие новости

Новости СМИ2

Главная страница сайта

Новости сайта

03.07.2017

Напоминаем, что на нашем специализированном сайте Метеоцентр.Азия вы можете получить высокодетализированные автоматические прогнозы погоды по пунктам России, СНГ и мира в авиационном формате (включающие направление и скорость ветра, видимость, явления погоды, количество и форму облачности, нижнюю и верхнюю границу облачности).

Рекомендуем: для Вас архив аудиокниг в UA-IX

Погода Никольское - сегодня

Время (UTC), дата Ветер
(°,м/с) 
Видим.   Явления Облачность Т
(°С)
Тd
(°С)
f(%) Тe
(°С)
Pmin
(гПа)
dP
(гПа)
Po
(мм)
O2
(г/м3)
Тmin Tmax R s Состояние
почвы
09 09.12.17 110 (В) 9-16{17}  10 км  слаб. ливневой снег  10/10 300 м кучево-дожд. 
[Cb cap]
-0.5 -0.7 99 -5  1007.1  -3.5  754  304    +0.3  0.5     
12 09.12.17 100 (В) 10-16{19}  10 км  слаб. ливневой снег  10/10 300 м кучево-дожд. 
[Cb cap]
+0.5 +0.1 97 -4  1002.8  -4.2  750  302           
15 09.12.17 100 (В) 12-18{23}  10 км  слаб. ливневой снег  10/10 300 м кучево-дожд. 
[Cb cap]
+0.6 +0.3 98 -5  998  -4.9  747  300           
18 09.12.17 090 (В) 18-23{24}  10 км  слаб. ливневой снег  10/10 300 м кучево-дожд. 
[Cb cap]
+0.3 +0 98 -6  994.3  -3.7  744  299           
21 09.12.17 090 (В) 15-20{25}  4000 м  слаб. ливневой снег  10/10 300 м кучево-дожд. 
[Cb cap]
+0.6 +0.2 97 -5  992.5  -1.8  743  299  -0.5    20  неравномерный
мокрый или
старый снег
100% 
00 10.12.17 060 (СВ) 16-24{24}  4000 м  слаб. ливневой снег  10/10 300 м кучево-дожд. 
[Cb cap]
+0.2 +0.1 99 -6  988.1  -4.4  739  298           
03 10.12.17 070 (В) 12-20{30}  4000 м  слаб. ливневой снег  10/10 300 м кучево-дожд. 
[Cb cap]
+0.2 +0.2 100 -5  985.6  -2.5  738  297           
06 10.12.17 070 (В) 12-21{23}  4000 м  слаб. ливневой дождь со снегом  10/10 300 м кучево-дожд. 
[Cb cap]
+1.2 +0.6 96 -4  985.2  -0.4  737  296           
09 10.12.17 070 (В) 14-22{28}  10 км  слаб. ливневой дождь  10/10 300 м кучево-дожд. 
[Cb cap]
+1.7 +0.2 90 -4  986.6  1.6  738  296    +1.8     
12 10.12.17 060 (СВ) 16-23{26}  10 км  слаб. ливневой дождь  10/10 300 м кучево-дожд. 
[Cb cap]
+1.5 +0.6 94 -4  988.3  1.5  740  296           
15 10.12.17 070 (В) 13-24{28}  20000 м  {ливн. осадки}  10/10 600 м кучево-дожд. 
[Cb cap]
+2.2 +0 85 -3  993.1  4.7  743  297           
18 10.12.17 070 (В) 13-22{25}  20000 м  {ливн. осадки}  10/10 600 м 
[Sc]
+2.3 -0.3 83 -3  996.5  3.4  746  298           
21 10.12.17 050 (СВ) 13-20{24}  10 км  слаб. ливневой дождь  10/10 300 м кучево-дожд. 
[Cb cap]
+2.4 +0.8 89 -3  1001.1  4.6  749  299  +1.1    12  неравномерный
мокрый или
старый снег
100% 
00 11.12.17 060 (СВ) 14-21{23}  20000 м  {ливн. осадки}  10/10 300 м 
[Sc]
+2.4 +0.3 86 -3  1004.8  3.7  752  300           
03 11.12.17 060 (СВ) 12-18{21}  10 км  слаб. ливневой снег  9/9 300 м кучево-дожд. 
[Cb cap]
+1.6 -0.6 85 -3  1008.8  3.9  755  302           
06 11.12.17 060 (СВ) 11-15{16}  20000 м  {ливн. осадки}  10/10 600 м 
[Sc]
+1.6 -2 77 -3  1012.7  3.9  758  304           
09 11.12.17 070 (В) 9-15{18}  10 км  слаб. ливневой снег  10/10 300 м кучево-дожд. 
[Cb cap]
+0.3 -1.6 87 -4  1015.7  760  306    +2.7  0.6     
12 11.12.17 050 (СВ) 8-12{17}  20000 м  {ливн. осадки}  8/8 600 м 
[Sc]
+0.6 -1.8 84 -4  1018.4  2.7  762  307           
15 11.12.17 060 (СВ) 7-11{14}  20000 м    10/10 600 м 
[Sc]
-0.5 -2.6 86 -4  1020.6  2.2  764  309           
18 11.12.17 060 (СВ) 5{12}  20000 м    10/10 600 м 
[Sc]
-0.6 -1.9 91 -4  1022  1.4  765  309           
21 11.12.17 070 (В) 20000 м  {ливн. осадки}  10/10 600 м 
[Sc]
+0 -2.7 82 -3  1023.2  1.3  766  309  -1.2    0.4  11  неравномерный
сухой снег
100% 
00 12.12.17 070 (В) 10 км  слаб. ливневой снег  9/9 600 м кучево-дожд. 
[Cb cap]
-0.7 -1.9 92 -4  1023.5  0.3  766  310           
03 12.12.17 080 (В) 20000 м  {ливн. осадки}  9/5 600 м верхняя 
[Cu Sc|Ci fib]
-0.5 -3.4 81 -4  1021.3  -2.3  764  309           
06 12.12.17 090 (В) 6{10}  20000 м  {ливн. осадки}  8/8 600 м 
[Sc]
-1.1 -4.6 77 -5  1020.5  -0.8  764  309           
09 12.12.17 070 (В) 10 км  слаб. ливневой снег  9/9 600 м кучево-дожд. 
[Cb cap]
-0.8 -5.4 71 -3  1018.4  -2.1  762  309    +0.1  0.4     
Время (UTC), дата Ветер
(°,м/с) 
Видим.   Явления Облачность Т
(°С)
Тd
(°С)
f(%) Тe
(°С)
Pmin
(гПа)
dP
(гПа)
Po
(мм)
O2
(г/м3)
Тmin Tmax R s Состояние
почвы

Для получения пояснительной информации подведите курсор к названию столбца.

ПОГОДА Никольское - архив

Всё, что Вы хотите узнать о погоде Никольское - удобно и подробно!

Выберите нужную дату (начиная с 1 января 2015* года) и нажмите кнопку "Найти".
Будут отображены архивные сводки погоды по пункту Никольское, начиная с указанной даты.


Отображать данные в формате CSV (для использования в таблицах Excel)


Внимание! Наш архив погоды предназначен исключительно для личного некоммерческого использования в познавательных целях. Если Вам необходимы официальные справки о состоянии погоды (для производственных, юридических, коммерческих и т.п. целей), обращайтесь в органы Росгидромета.

*Примечание: данная дата относится к архиву по метеостанциям СССР (Россия, СНГ, Балтия).
Архив по метеостанциям Зарубежной Европы и Азии (кроме Китая) хранится 10 дней, по другим регионам земного шара (Китай, Африка, Америка, Австралия, Океания) - 1 день.

Никольское - район местоположения метеостанции


Название, широта, долгота, высота метеостанции:
Никольское 55.2°ш. 166°д. 18 м над ур. моря [Российская Федерация]

Дополнительная информация

В oтличие oт бoльшинства пoгoдных сайтoв мы публикуем пoдрoбную метеoинфoрмацию в детальнoм прoфессиoнальнoм фoрмате.

Характеристики температуры и влажнoсти вoздуха измеряются на высoте 2 м в тени вдали oт зданий и деревьев.
Скoрoсть ветра измеряется на высoте 10 м (на урoвне рoста челoвека скoрoсть ветра ниже в 1.5-2 раза). Если метеoстанция нахoдится в гoрoде или в лесу, тo скoрoсть ветра занижена на 2-4 м/с пo сравнению с oткрытым местoм. Скoрoсть ветра над акватoриями крупных рек и oзёр, а также на вершинах хoлмoв на 2-5 м/с выше, чем в oбычных услoвиях.
Атмoсфернoе давление в разных тoчках местнoсти мoжет значительнo oтличаться oт давления на метеoстанции, в зависимoсти oт услoвий рельефа (при пoдъёме на 10 м давление пoнижается примернo на 1 мм рт.ст.).